Quick links : Home Page : Contact Us : Index : Site Map : Search Site : Ephemerides


(163760) 2003 OR14

Orbital Elements

The following orbital elements are taken from MPO123540
(163760) 2003 OR14
Epoch 2007 Oct. 27.0 TT = JDT 2454400.5                 MPC
M 335.15048              (2000.0)            P               Q
n   0.24680887     Peri.  211.81337     +0.45512545     -0.88254143
a   2.5170714      Node   211.57153     +0.85697295     +0.47020459
e   0.4997526      Incl.   13.05248     +0.24178127     -0.00531697
P   3.99           H   16.4           G   0.15           U   2
From 169 observations at 3 oppositions, 1995-2007, mean residual 0".46.
An explanation of the orbital elements is available.

These orbital elements are also available in forms suitable for loading into a number of popular planetarium-type software programs.


Ephemeris

The following ephemeris is at intervals of five days. A daily ephemeris covering the same time interval is also available.

Personalized ephemerides for this (and other) objects may be generated using the Minor Planet & Comet Ephemeris Service.

Date    TT    R. A. (2000) Decl.     Delta      r     Elong.  Phase     V
2008 09 11    11 32.26   -02 40.9    3.346    2.353     8.1     3.4    21.2

Back to Observable Critical-List Minor Planets

MPC

Valid HTML 4.01!